Weather in Chifeng

China     42°16′00″N   118°57′05″E
temp.,
°C
wind,
m/s
gust,
m/s
humid.,
%
clouds,
%
prec.,
mm/h
press.,
hPa
HPBL,
m
21 april, wed
wed2123:00+16s33405 0.0 101532
02:00+14ssw344430 0.0 101549
05:00+13ssw344710 0.0 101546
08:00+17sw5835100 0.0 1016606
11:00+22sw7821100 0.0 10141587
14:00+24ssw7717100 0.0 10112529
17:00+20ssw91021100 0.0 10121450
20:00+17s6929100 0.0 1014804
22 april, thu
thu2223:00+11s9135189 0.0 10171043
02:00+10s7954100 0.0 1015833
05:00+9s7864100 0.0 1014741
08:00+10s5660100 0.0 1014963
11:00+14s5645100 0.0 10131416
14:00+15sse6642100 0.0 10111110
17:00+14sse8850100 0.0 1011567
20:00+10sse61069100 0.0 1014314
23 april, fri
fri2323:00+8se2380100 0.0 1017247
02:00+8ese128368 0.0 1017192
05:00+7sse129152 0.0 101924
08:00+10ese11725 0.0 1021364
11:00+16ne574826 0.0 10211393
14:00+17ne9104325 0.0 10211778
17:00+13ne886099 0.0 10241372
20:00+11ne676961 0.1 1028772
24 april, sat
sat2423:00+10ne577899 0.0 1030681
02:00+9ne6779100 0.1 1030841
05:00+7ne5676100 0.0 1032537
08:00+7ne5572100 0.0 1034678
11:00+9nne455598 0.0 1033997
14:00+10nne444730 0.0 1031945
17:00+12ne333942 0.0 10291132
20:00+9ene364282 0.0 1029171
25 april, sun
sun2523:00+7e224350 0.0 102923
02:00+6nne1145100 0.0 102810
05:00+5ssw114860 0.0 102610
08:00+10sse123999 0.0 1025380
11:00+15sse223593 0.0 10221011
14:00+19se4430100 0.0 10181542
17:00+19sse6732100 0.0 10161081
20:00+16s5739100 0.0 1016255